Location: Altavilla Irpina
(41.0000°N, 14.7833°E)
Time: 01:56:24
(UTC+00:00)

Cosmos 1238 Rocket - Pass Details

Date: 19 May 2025
Orbit: 356 x 776 km, 82.9° (Epoch: 23 June)

Event Time Altitude Azimuth Distance (km) Brightness Sun altitude
Exits shadow 21:25:02 31° 283° (WNW) 876 4.1 -25.4°
Drops below altitude 10° 21:28:06 10° 345° (NNW) 1,590 6.2 -25.6°
Sets 21:30:11 0° 356° (N) 2,402 7.2 -25.8°
